Location: Ch?enovice
(49.7164°N, 15.2160°E)
Time: 17:41:09
(UTC+00:00)

Cosmos 1703 Rocket - Pass Details

Date: 23 May 2024
Orbit: 602 x 629 km, 82.5° (Epoch: 13 June)

Event Time Altitude Azimuth Distance (km) Brightness Sun altitude
Exits shadow 00:58:56 24° 210° (SSW) 1,281 4.5 -14.5°
Maximum altitude 01:01:26 60° 283° (WNW) 720 3.8 -14.3°
Drops below altitude 10° 01:05:51 10° 4° (N) 2,015 7.2 -14.0°
Sets 01:08:08 0° 8° (N) 2,930 8.3 -13.8°
